Погода в Родниковом

Россия / Республика Дагестан     42°09′00″N   47°56′57″E
темп.,
°C
ветер,
м/с
пор.,
м/с
влажн.,
%
обл.,
%
осадки,
мм/ч
давл.,
гПа
погр.,
м
4 июля, пн
пн400:00+19юз335126 0.0 101338
03:00+18зюз33517 0.0 101340
06:00+22зюз24402 0.0 1014175
09:00+28с562733 0.0 10142509
12:00+27ссв563176 0.0 10141263
15:00+27св433295 0.0 1014853
18:00+24в22416 0.0 1014643
21:00+19ююз22570 0.0 101563
5 июля, вт
вт500:00+19юз22510 0.0 101426
03:00+19зюз33450 0.0 101338
06:00+23зюз23350 0.0 1013109
09:00+30св33230 0.0 10132376
12:00+31св64246 0.0 10131882
15:00+31в432574 0.0 10111781
18:00+23ссв456859 0.0 1014708
21:00+20юз11820 0.0 101585
6 июля, ср
ср600:00+19зюз22773 0.0 101536
03:00+19зюз22590 0.0 101531
06:00+23зюз22440 0.0 1015130
09:00+28св43351 0.0 10151429
12:00+27всв63416 0.0 10161360
15:00+26всв54415 0.0 10161290
18:00+23в43471 0.0 1016746
21:00+19юв12640 0.0 1017149
7 июля, чт
чт700:00+18юз11680 0.0 101649
03:00+17ююз12720 0.0 101663
06:00+20ююв23660 0.0 1016352
09:00+25вюв55470 0.0 10151226
12:00+26в76401 0.0 10151313
15:00+26в65445 0.0 10141224
18:00+23вюв445596 0.0 1014678
21:00+19ююв12764 0.0 1014112
8 июля, пт
пт800:00+18зюз11755 0.0 101323
03:00+18юз117692 0.0 101322
06:00+21ююз125730 0.0 1013151
09:00+28в472888 0.1 10121127
12:00+27в663564 0.0 1012813
15:00+26св2240100 0.1 1012852
18:00+24вюв115384 0.0 1012138
21:00+21зюз116118 0.0 101314